Paso Robles, CA

5:21 AM PST on December 13, 2019 (GMT -0800)
Paso Robles Municipal

Weather History for KPRB - October, 2019

Change the Weather History Date:

Wednesday, October 9, 2019

  Actual Average Record
Temperature  
Mean Temperature 63 °F 64 °F  
Max Temperature 84 °F 82 °F 98 °F (1966)
Min Temperature 42 °F 46 °F 30 °F (1949)
Degree Days  
Heating Degree Days 2 3  
Month to date heating degree days 32 23  
Since 1 July heating degree days 58 55  
Cooling Degree Days 0 2  
Month to date cooling degree days 11 22  
Year to date cooling degree days 1046 913  
Growing Degree Days 13 (Base 50)    
Moisture  
Dew Point 40 °F    
Average Humidity 55    
Maximum Humidity 83    
Minimum Humidity 14    
Precipitation  
Precipitation 0.00 in 0.01 in 0.17 in (1972)
Month to date precipitation 0.00 0.11  
Year to date precipitation 11.28 9.23  
Sea Level Pressure  
Sea Level Pressure 29.85 in    
Wind  
Wind Speed 3 mph ()    
Max Wind Speed 17 mph    
Max Gust Speed 20 mph    
Visibility 9.9 miles    
Events      
T = Trace of Precipitation, MM = Missing Value Source: Averaged Metar Reports

Daily Weather History Graph

Daily Weather History Graph

Search for Another Location

Airport or City:

Astronomy

Oct. 09, 2019 Rise Set
Actual Time 7:03 AM PDT 6:35 PM PDT
Civil Twilight 6:38 AM PDT 7:00 PM PDT
Nautical Twilight 6:08 AM PDT 7:30 PM PDT
Astronomical Twilight 5:39 AM PDT 7:59 PM PDT
Moon 4:59 PM PDT (10/9) 3:06 AM PDT (10/9)
Length of Visible Light 12h 22m
Length of Day
11h 31m
Waxing Gibbous, 85% of the Moon is Illuminated
Oct 9
Waxing Gibbous
Oct 13
Full
Oct 21
Last Quarter
Oct 27
New
Nov 4
First Quarter

Hourly Weather History & Observations

Time (PDT) Temp. Windchill Dew Point Humidity Pressure Visibility Wind Dir Wind Speed Gust Speed Precip Events Conditions
12:53 AM 53.1 °F - 37.9 °F 57% 29.84 in 10.0 mi Calm Calm - N/A   Clear
1:53 AM 51.1 °F - 37.9 °F 61% 29.84 in 10.0 mi Calm Calm - N/A   Clear
2:53 AM 48.0 °F - 35.1 °F 61% 29.85 in 10.0 mi Calm Calm - N/A   Clear
3:53 AM 46.9 °F - 35.1 °F 63% 29.84 in 10.0 mi North - - N/A   Clear
4:53 AM 46.0 °F - 36.0 °F 68% 29.85 in 10.0 mi Calm Calm - N/A   Clear
5:53 AM 45.0 °F - 37.0 °F 74% 29.86 in 10.0 mi Calm Calm - N/A   Clear
6:53 AM 43.0 °F - 36.0 °F 76% 29.86 in 10.0 mi Calm Calm - N/A   Clear
7:46 AM 46.0 °F 43.1 °F 35.1 °F 66% 29.88 in 10.0 mi NW 5.8 mph - N/A   Scattered Clouds
7:53 AM 48.9 °F - 43.0 °F 80% 29.88 in 10.0 mi NW 6.9 mph - N/A   Mostly Cloudy
8:53 AM 51.1 °F - 46.0 °F 83% 29.90 in 10.0 mi Calm Calm - N/A   Overcast
9:39 AM 55.0 °F - 48.9 °F 80% 29.91 in 10.0 mi Calm Calm - N/A   Scattered Clouds
9:53 AM 57.0 °F - 50.0 °F 77% 29.90 in 10.0 mi Calm Calm - N/A   Clear
10:53 AM 63.0 °F - 48.0 °F 58% 29.88 in 10.0 mi Variable 3.5 mph - N/A   Clear
11:53 AM 69.1 °F - 46.0 °F 44% 29.86 in 10.0 mi Calm Calm - N/A   Clear
12:53 PM 77.0 °F - 35.1 °F 22% 29.84 in 10.0 mi WNW 10.4 mph - N/A   Clear
1:53 PM 78.1 °F - 28.0 °F 16% 29.81 in 10.0 mi Calm Calm - N/A   Clear
2:53 PM 81.0 °F - 28.0 °F 14% 29.79 in 10.0 mi Variable 3.5 mph - N/A   Clear
3:53 PM 80.1 °F - 42.1 °F 26% 29.78 in 10.0 mi SSW 10.4 mph - N/A   Clear
4:53 PM 75.9 °F - 45.0 °F 33% 29.77 in 10.0 mi SSW 13.8 mph - N/A   Clear
5:53 PM 68.0 °F - 48.9 °F 50% 29.78 in 10.0 mi SSW 12.7 mph - N/A   Clear
6:53 PM 63.0 °F - 46.9 °F 56% 29.81 in 10.0 mi SW 5.8 mph - N/A   Clear
7:20 PM 66.0 °F - 39.0 °F 37% 29.82 in 9.0 mi WNW 16.1 mph - N/A   Clear
7:53 PM 63.0 °F - 41.0 °F 45% 29.81 in 9.0 mi WNW 15.0 mph - N/A   Clear
8:53 PM 59.0 °F - 43.0 °F 55% 29.85 in 10.0 mi NW 9.2 mph - N/A   Clear
9:53 PM 55.9 °F - 42.1 °F 60% 29.86 in 10.0 mi WNW 3.5 mph - N/A   Clear
10:53 PM 54.0 °F - 41.0 °F 62% 29.88 in 10.0 mi NNW 4.6 mph - N/A   Clear
11:53 PM 50.0 °F - 39.9 °F 68% 29.89 in 10.0 mi NNE 3.5 mph - N/A   Clear